| time (UTC) | temp F | wind direction | speed MPH | gust MPH | rain 1hr in | rain 24hr in | rain mn in | humidity % | barometer mb |
| 20260905074328 | 58 | 232 | 2.0 | 5.0 | 0.00 | 0.00 | 0.00 | 68 | 1013.6 |
| 20260905073709 | 59 | 238 | 2.0 | 5.0 | 0.00 | 0.00 | 0.00 | 69 | 1013.5 |
| 20260905073356 | 58 | 215 | 1.0 | 3.0 | 0.00 | 0.00 | 0.00 | 69 | 1013.5 |
| 20260905072615 | 59 | 213 | 1.0 | 3.0 | 0.00 | 0.00 | 0.00 | 68 | 1013.5 |
| 20260905072051 | 59 | 213 | 1.0 | 3.0 | 0.00 | 0.00 | 0.00 | 68 | 1013.5 |
| 20260905071551 | 59 | 214 | 2.0 | 4.0 | 0.00 | 0.00 | 0.00 | 68 | 1013.4 |
| 20260905071036 | 60 | 215 | 2.0 | 4.0 | 0.00 | 0.00 | 0.00 | 69 | 1013.5 |
| 20260905070529 | 60 | 214 | 2.0 | 4.0 | 0.00 | 0.00 | 0.00 | 69 | 1013.5 |
| 20260905070027 | 60 | 214 | 2.0 | 4.0 | 0.00 | 0.00 | 0.00 | 69 | 1013.4 |
| 20260905065526 | 60 | 220 | 2.0 | 4.0 | 0.00 | 0.00 | 0.00 | 68 | 1013.4 |
| 20260905064958 | 60 | 223 | 1.0 | 3.0 | 0.00 | 0.00 | 0.00 | 68 | 1013.5 |
| 20260905064446 | 60 | 224 | 2.0 | 4.0 | 0.00 | 0.00 | 0.00 | 67 | 1013.5 |
| 20260905063922 | 60 | 226 | 1.0 | 4.0 | 0.00 | 0.00 | 0.00 | 67 | 1013.6 |
| 20260905063353 | 60 | 227 | 0.0 | 3.0 | 0.00 | 0.00 | 0.00 | 67 | 1013.6 |
| 20260905062824 | 60 | 228 | 1.0 | 3.0 | 0.00 | 0.00 | 0.00 | 67 | 1013.6 |
| 20260905062531 | 60 | 229 | 1.0 | 3.0 | 0.00 | 0.00 | 0.00 | 66 | 1013.5 |
| 20260905061752 | 60 | 229 | 1.0 | 3.0 | 0.00 | 0.00 | 0.00 | 67 | 1013.5 |
| 20260905061250 | 61 | 230 | 1.0 | 4.0 | 0.00 | 0.00 | 0.00 | 67 | 1013.5 |
| 20260905060750 | 61 | 231 | 2.0 | 4.0 | 0.00 | 0.00 | 0.00 | 67 | 1013.5 |
| 20260905060249 | 61 | 240 | 1.0 | 4.0 | 0.00 | 0.00 | 0.00 | 67 | 1013.5 |
| 20260905055749 | 61 | 261 | 1.0 | 3.0 | 0.00 | 0.00 | 0.00 | 67 | 1013.5 |
| 20260905055244 | 61 | 267 | 1.0 | 3.0 | 0.00 | 0.00 | 0.00 | 67 | 1013.6 |
| 20260905054742 | 61 | 307 | 0.0 | 2.0 | 0.00 | 0.00 | 0.00 | 68 | 1013.6 |
| 20260905054243 | 61 | 307 | 1.0 | 2.0 | 0.00 | 0.00 | 0.00 | 67 | 1013.5 |
| 20260905054003 | 62 | 309 | 0.0 | 2.0 | 0.00 | 0.00 | 0.00 | 66 | 1013.6 |
| 20260905053058 | 62 | 0.0 | 0.0 | 0.00 | 0.00 | 0.00 | 66 | ||
| 20260905051213 | 63 | 317 | 4.0 | 7.0 | 0.00 | 0.00 | 0.00 | 66 | 1013.8 |
| 20260905050657 | 63 | 312 | 4.0 | 7.0 | 0.00 | 0.00 | 0.00 | 66 | 1013.8 |
| 20260905050138 | 63 | 313 | 3.0 | 4.0 | 0.00 | 0.00 | 0.00 | 66 | 1013.8 |
| 20260905015626 | 75 | 238 | 4.0 | 8.0 | 0.00 | 0.00 | 0.00 | 37 | 1012.2 |
| 20260905015128 | 75 | 248 | 4.0 | 8.0 | 0.00 | 0.00 | 0.00 | 36 | 1012.3 |
| 20260905014532 | 75 | 236 | 4.0 | 8.0 | 0.00 | 0.00 | 0.00 | 34 | 1012.2 |
| 20260905014032 | 76 | 239 | 4.0 | 8.0 | 0.00 | 0.00 | 0.00 | 33 | 1012.2 |
| 20260905013834 | 76 | 217 | 4.0 | 8.0 | 0.00 | 0.00 | 0.00 | 33 | 1012.1 |
| 20260905012710 | 76 | 198 | 4.0 | 7.0 | 0.00 | 0.00 | 0.00 | 34 | 1012.1 |
| 20260905012210 | 76 | 238 | 4.0 | 8.0 | 0.00 | 0.00 | 0.00 | 34 | 1012.1 |
| 20260905011710 | 77 | 208 | 4.0 | 8.0 | 0.00 | 0.00 | 0.00 | 35 | 1012.0 |
| 20260905011210 | 77 | 226 | 4.0 | 10.0 | 0.00 | 0.00 | 0.00 | 36 | 1012.0 |
| 20260905010710 | 77 | 231 | 4.0 | 10.0 | 0.00 | 0.00 | 0.00 | 39 | 1012.0 |
| 20260905010210 | 77 | 259 | 4.0 | 8.0 | 0.00 | 0.00 | 0.00 | 39 | 1012.0 |
| 20260905005934 | 77 | 224 | 4.0 | 9.0 | 0.00 | 0.00 | 0.00 | 39 | 1012.1 |
| 20260905004902 | 77 | 230 | 5.0 | 10.0 | 0.00 | 0.00 | 0.00 | 39 | 1012.1 |
| 20260905004400 | 78 | 194 | 6.0 | 10.0 | 0.00 | 0.00 | 0.00 | 40 | 1012.0 |
| 20260905003835 | 78 | 252 | 6.0 | 10.0 | 0.00 | 0.00 | 0.00 | 39 | 1012.1 |
| 20260905003333 | 78 | 234 | 5.0 | 10.0 | 0.00 | 0.00 | 0.00 | 39 | 1012.0 |
| 20260905002835 | 79 | 234 | 5.0 | 11.0 | 0.00 | 0.00 | 0.00 | 39 | 1012.0 |
| 20260905002333 | 79 | 265 | 5.0 | 11.0 | 0.00 | 0.00 | 0.00 | 40 | 1012.0 |
| 20260905001836 | 79 | 244 | 5.0 | 9.0 | 0.00 | 0.00 | 0.00 | 39 | 1012.0 |
| 20260905001335 | 79 | 229 | 5.0 | 12.0 | 0.00 | 0.00 | 0.00 | 39 | 1012.0 |
| 20260905000834 | 79 | 182 | 5.0 | 12.0 | 0.00 | 0.00 | 0.00 | 39 | 1012.0 |
| 20260905000333 | 79 | 213 | 5.0 | 10.0 | 0.00 | 0.00 | 0.00 | 39 | 1012.0 |
| 20260904235830 | 80 | 182 | 5.0 | 10.0 | 0.00 | 0.00 | 0.00 | 38 | 1012.0 |
| 20260904235329 | 80 | 217 | 5.0 | 12.0 | 0.00 | 0.00 | 0.00 | 38 | 1012.0 |
| 20260904234830 | 80 | 239 | 5.0 | 12.0 | 0.00 | 0.00 | 0.00 | 38 | 1012.0 |
| 20260904234331 | 80 | 209 | 7.0 | 12.0 | 0.00 | 0.00 | 0.00 | 38 | 1012.1 |
| 20260904234022 | 80 | 238 | 7.0 | 13.0 | 0.00 | 0.00 | 0.00 | 38 | 1012.1 |
| 20260904233258 | 80 | 178 | 6.0 | 13.0 | 0.00 | 0.00 | 0.00 | 38 | 1012.1 |
| 20260904233020 | 81 | 234 | 6.0 | 12.0 | 0.00 | 0.00 | 0.00 | 37 | 1012.2 |
| 20260904232522 | 81 | 232 | 7.0 | 12.0 | 0.00 | 0.00 | 0.00 | 37 | 1012.2 |
| 20260904231802 | 81 | 215 | 6.0 | 11.0 | 0.00 | 0.00 | 0.00 | 37 | 1012.1 |
| 20260904231258 | 81 | 202 | 5.0 | 12.0 | 0.00 | 0.00 | 0.00 | 37 | 1012.1 |
| 20260904231016 | 81 | 229 | 6.0 | 12.0 | 0.00 | 0.00 | 0.00 | 37 | 1012.2 |
| 20260904230254 | 81 | 231 | 6.0 | 12.0 | 0.00 | 0.00 | 0.00 | 37 | 1012.2 |
| 20260904225754 | 82 | 235 | 6.0 | 11.0 | 0.00 | 0.00 | 0.00 | 38 | 1012.2 |
| 20260904225254 | 82 | 226 | 6.0 | 11.0 | 0.00 | 0.00 | 0.00 | 38 | 1012.2 |
| 20260904225011 | 81 | 257 | 5.0 | 10.0 | 0.00 | 0.00 | 0.00 | 37 | 1012.3 |
| 20260904224248 | 82 | 215 | 3.0 | 8.0 | 0.00 | 0.00 | 0.00 | 38 | 1012.2 |
| 20260904223746 | 81 | 223 | 3.0 | 8.0 | 0.00 | 0.00 | 0.00 | 39 | 1012.3 |
| 20260904223246 | 80 | 256 | 3.0 | 8.0 | 0.00 | 0.00 | 0.00 | 39 | 1012.4 |
| 20260904222716 | 79 | 136 | 5.0 | 10.0 | 0.00 | 0.00 | 0.00 | 40 | 1012.4 |
| 20260904222158 | 80 | 190 | 6.0 | 16.0 | 0.00 | 0.00 | 0.00 | 40 | 1012.3 |
| 20260904221700 | 80 | 142 | 4.0 | 16.0 | 0.00 | 0.00 | 0.00 | 39 | 1012.4 |
| 20260904221144 | 79 | 237 | 3.0 | 10.0 | 0.00 | 0.00 | 0.00 | 39 | 1012.5 |
| 20260904220644 | 80 | 317 | 3.0 | 10.0 | 0.00 | 0.00 | 0.00 | 38 | 1012.4 |
| 20260904220356 | 80 | 320 | 3.0 | 9.0 | 0.00 | 0.00 | 0.00 | 38 | 1012.4 |
| 20260904215856 | 80 | 253 | 4.0 | 9.0 | 0.00 | 0.00 | 0.00 | 39 | 1012.5 |
| 20260904215133 | 79 | 325 | 4.0 | 10.0 | 0.00 | 0.00 | 0.00 | 39 | 1012.4 |
| 20260904214858 | 78 | 22 | 4.0 | 10.0 | 0.00 | 0.00 | 0.00 | 41 | 1012.5 |
| 20260904214134 | 78 | 349 | 4.0 | 10.0 | 0.00 | 0.00 | 0.00 | 42 | 1012.5 |
| 20260904213634 | 78 | 0 | 6.0 | 13.0 | 0.00 | 0.00 | 0.00 | 41 | 1012.6 |
| 20260904213127 | 79 | 355 | 6.0 | 13.0 | 0.00 | 0.00 | 0.00 | 42 | 1012.6 |
| 20260904212626 | 80 | 335 | 5.0 | 11.0 | 0.00 | 0.00 | 0.00 | 41 | 1012.6 |
| 20260904212347 | 79 | 55 | 4.0 | 12.0 | 0.00 | 0.00 | 0.00 | 43 | 1012.6 |
| 20260904211556 | 80 | 42 | 5.0 | 12.0 | 0.00 | 0.00 | 0.00 | 42 | 1012.7 |
| 20260904211055 | 78 | 44 | 4.0 | 12.0 | 0.00 | 0.00 | 0.00 | 41 | 1012.7 |
| 20260904210547 | 78 | 119 | 4.0 | 10.0 | 0.00 | 0.00 | 0.00 | 42 | 1012.6 |
| 20260904210046 | 78 | 82 | 5.0 | 11.0 | 0.00 | 0.00 | 0.00 | 43 | 1012.7 |
| 20260904205544 | 78 | 333 | 5.0 | 11.0 | 0.00 | 0.00 | 0.00 | 43 | 1012.7 |
| 20260904205042 | 78 | 32 | 4.0 | 11.0 | 0.00 | 0.00 | 0.00 | 43 | 1012.7 |
| 20260904204542 | 79 | 71 | 4.0 | 11.0 | 0.00 | 0.00 | 0.00 | 45 | 1012.7 |
| 20260904204039 | 78 | 111 | 4.0 | 13.0 | 0.00 | 0.00 | 0.00 | 43 | 1012.7 |
| 20260904203539 | 79 | 336 | 4.0 | 13.0 | 0.00 | 0.00 | 0.00 | 42 | 1012.7 |
| 20260904203041 | 79 | 63 | 4.0 | 10.0 | 0.00 | 0.00 | 0.00 | 42 | 1012.7 |
| 20260904202537 | 78 | 336 | 3.0 | 5.0 | 0.00 | 0.00 | 0.00 | 43 | 1012.7 |
| 20260904202039 | 79 | 49 | 3.0 | 8.0 | 0.00 | 0.00 | 0.00 | 41 | 1012.8 |
| 20260904201515 | 79 | 161 | 4.0 | 10.0 | 0.00 | 0.00 | 0.00 | 43 | 1012.8 |
| 20260904201016 | 79 | 317 | 3.0 | 10.0 | 0.00 | 0.00 | 0.00 | 43 | 1012.8 |
| 20260904200512 | 79 | 338 | 3.0 | 11.0 | 0.00 | 0.00 | 0.00 | 41 | 1012.8 |
| 20260904200012 | 78 | 244 | 3.0 | 11.0 | 0.00 | 0.00 | 0.00 | 41 | 1012.9 |
| 20260904195512 | 78 | 299 | 3.0 | 8.0 | 0.00 | 0.00 | 0.00 | 44 | 1012.9 |
| 20260904195009 | 78 | 322 | 4.0 | 10.0 | 0.00 | 0.00 | 0.00 | 43 | 1012.9 |
| 20260904194509 | 77 | 325 | 4.0 | 10.0 | 0.00 | 0.00 | 0.00 | 42 | 1012.9 |
| 20260904194008 | 78 | 344 | 3.0 | 8.0 | 0.00 | 0.00 | 0.00 | 42 | 1012.9 |
| 20260904193506 | 78 | 36 | 3.0 | 8.0 | 0.00 | 0.00 | 0.00 | 43 | 1013.1 |
| 20260904193004 | 78 | 68 | 4.0 | 8.0 | 0.00 | 0.00 | 0.00 | 42 | 1013.0 |
| 20260904192939 | 78 | 123 | 4.0 | 9.0 | 0.00 | 0.00 | 0.00 | 44 | 1013.0 |
| 20260904192000 | 76 | 346 | 3.0 | 9.0 | 0.00 | 0.00 | 0.00 | 45 | 1013.2 |
| 20260904191721 | 76 | 13 | 3.0 | 7.0 | 0.00 | 0.00 | 0.00 | 45 | 1013.2 |
| 20260904190957 | 76 | 92 | 3.0 | 9.0 | 0.00 | 0.00 | 0.00 | 44 | 1013.3 |
| 20260904190703 | 76 | 54 | 3.0 | 9.0 | 0.00 | 0.00 | 0.00 | 44 | 1013.3 |
| 20260904185941 | 77 | 99 | 2.0 | 6.0 | 0.00 | 0.00 | 0.00 | 44 | 1013.3 |
| 20260904185418 | 77 | 162 | 2.0 | 5.0 | 0.00 | 0.00 | 0.00 | 41 | 1013.3 |
| 20260904184848 | 77 | 158 | 3.0 | 7.0 | 0.00 | 0.00 | 0.00 | 41 | 1013.3 |
| 20260904184131 | 78 | 191 | 2.0 | 6.0 | 0.00 | 0.00 | 0.00 | 42 | 1013.4 |
| 20260904183606 | 77 | 355 | 2.0 | 6.0 | 0.00 | 0.00 | 0.00 | 42 | 1013.3 |
| 20260904183107 | 77 | 272 | 2.0 | 8.0 | 0.00 | 0.00 | 0.00 | 44 | 1013.3 |
| 20260904182547 | 76 | 65 | 2.0 | 8.0 | 0.00 | 0.00 | 0.00 | 44 | 1013.3 |
| 20260904182046 | 75 | 55 | 2.0 | 9.0 | 0.00 | 0.00 | 0.00 | 43 | 1013.4 |
| 20260904181547 | 76 | 281 | 3.0 | 9.0 | 0.00 | 0.00 | 0.00 | 43 | 1013.3 |
| 20260904181041 | 74 | 91 | 2.0 | 5.0 | 0.00 | 0.00 | 0.00 | 46 | 1013.4 |
| 20260904180537 | 74 | 250 | 1.0 | 5.0 | 0.00 | 0.00 | 0.00 | 47 | 1013.4 |
| 20260904180041 | 73 | 337 | 2.0 | 5.0 | 0.00 | 0.00 | 0.00 | 49 | 1013.5 |
| 20260904175536 | 73 | 29 | 2.0 | 5.0 | 0.00 | 0.00 | 0.00 | 49 | 1013.5 |
| 20260904175033 | 72 | 16 | 2.0 | 5.0 | 0.00 | 0.00 | 0.00 | 52 | 1013.5 |
| 20260904174533 | 71 | 324 | 2.0 | 5.0 | 0.00 | 0.00 | 0.00 | 54 | 1013.5 |
| 20260904174039 | 71 | 38 | 3.0 | 9.0 | 0.00 | 0.00 | 0.00 | 53 | 1013.5 |
| 20260904173551 | 71 | 346 | 4.0 | 9.0 | 0.00 | 0.00 | 0.00 | 52 | 1013.5 |
| 20260904173100 | 71 | 75 | 3.0 | 10.0 | 0.00 | 0.00 | 0.00 | 54 | 1013.5 |
| 20260904172524 | 71 | 346 | 3.0 | 10.0 | 0.00 | 0.00 | 0.00 | 54 | 1013.5 |
| 20260904172031 | 71 | 333 | 3.0 | 6.0 | 0.00 | 0.00 | 0.00 | 54 | 1013.4 |
| 20260904171523 | 72 | 306 | 3.0 | 7.0 | 0.00 | 0.00 | 0.00 | 54 | 1013.4 |
| 20260904171246 | 73 | 302 | 3.0 | 7.0 | 0.00 | 0.00 | 0.00 | 53 | 1013.4 |
| 20260904170521 | 72 | 210 | 2.0 | 7.0 | 0.00 | 0.00 | 0.00 | 56 | 1013.4 |
| 20260904170020 | 70 | 271 | 3.0 | 7.0 | 0.00 | 0.00 | 0.00 | 55 | 1013.4 |
| 20260904165518 | 71 | 266 | 3.0 | 7.0 | 0.00 | 0.00 | 0.00 | 56 | 1013.4 |
| 20260904165017 | 71 | 174 | 2.0 | 5.0 | 0.00 | 0.00 | 0.00 | 57 | 1013.4 |
| 20260904164517 | 69 | 212 | 2.0 | 5.0 | 0.00 | 0.00 | 0.00 | 57 | 1013.3 |
| 20260904164015 | 68 | 304 | 2.0 | 6.0 | 0.00 | 0.00 | 0.00 | 60 | 1013.2 |
| 20260904163513 | 68 | 286 | 2.0 | 6.0 | 0.00 | 0.00 | 0.00 | 61 | 1013.2 |
| 20260904163010 | 67 | 223 | 4.0 | 13.0 | 0.00 | 0.00 | 0.00 | 64 | 1013.2 |
| 20260904162510 | 67 | 254 | 3.0 | 13.0 | 0.00 | 0.00 | 0.00 | 65 | 1013.1 |
| 20260904162008 | 66 | 55 | 2.0 | 5.0 | 0.00 | 0.00 | 0.00 | 67 | 1013.1 |
| 20260904161506 | 66 | 350 | 2.0 | 5.0 | 0.00 | 0.00 | 0.00 | 67 | 1013.1 |
| 20260904161004 | 66 | 93 | 2.0 | 5.0 | 0.00 | 0.00 | 0.00 | 68 | 1013.0 |
| 20260904160505 | 65 | 214 | 2.0 | 7.0 | 0.00 | 0.00 | 0.00 | 68 | 1013.1 |
| 20260904160005 | 65 | 215 | 2.0 | 7.0 | 0.00 | 0.00 | 0.00 | 68 | 1013.1 |
| 20260904155505 | 64 | 294 | 2.0 | 4.0 | 0.00 | 0.00 | 0.00 | 69 | 1013.0 |
| 20260904154959 | 64 | 219 | 2.0 | 7.0 | 0.00 | 0.00 | 0.00 | 70 | 1013.0 |
| 20260904154457 | 63 | 242 | 2.0 | 7.0 | 0.00 | 0.00 | 0.00 | 71 | 1013.0 |
| 20260904153957 | 62 | 221 | 2.0 | 4.0 | 0.00 | 0.00 | 0.00 | 72 | 1013.0 |
| 20260904153720 | 62 | 298 | 1.0 | 3.0 | 0.00 | 0.00 | 0.00 | 72 | 1013.0 |
| 20260904153220 | 62 | 0 | 1.0 | 3.0 | 0.00 | 0.00 | 0.00 | 73 | 1013.0 |
| 20260904152455 | 62 | 0 | 1.0 | 3.0 | 0.00 | 0.00 | 0.00 | 73 | 1013.0 |
| 20260904151955 | 61 | 40 | 1.0 | 3.0 | 0.00 | 0.00 | 0.00 | 74 | 1013.0 |
| 20260904151453 | 61 | 41 | 1.0 | 3.0 | 0.00 | 0.00 | 0.00 | 74 | 1013.0 |
| 20260904150951 | 61 | 42 | 1.0 | 3.0 | 0.00 | 0.00 | 0.00 | 74 | 1013.0 |
| 20260904150716 | 61 | 69 | 1.0 | 6.0 | 0.00 | 0.00 | 0.00 | 75 | 1012.9 |
| 20260904145947 | 60 | 69 | 0.0 | 6.0 | 0.00 | 0.00 | 0.00 | 75 | 1012.9 |
| 20260904145447 | 60 | 91 | 0.0 | 2.0 | 0.00 | 0.00 | 0.00 | 75 | 1012.8 |
| 20260904144946 | 60 | 91 | 1.0 | 2.0 | 0.00 | 0.00 | 0.00 | 75 | 1012.7 |
| 20260904144444 | 60 | 92 | 1.0 | 3.0 | 0.00 | 0.00 | 0.00 | 75 | 1012.6 |
| 20260904143941 | 60 | 90 | 1.0 | 4.0 | 0.00 | 0.00 | 0.00 | 75 | 1012.6 |
| 20260904143439 | 60 | 340 | 2.0 | 4.0 | 0.00 | 0.00 | 0.00 | 75 | 1012.5 |
| 20260904142939 | 60 | 34 | 2.0 | 4.0 | 0.00 | 0.00 | 0.00 | 75 | 1012.5 |
| 20260904142438 | 60 | 337 | 1.0 | 3.0 | 0.00 | 0.00 | 0.00 | 75 | 1012.5 |
| 20260904141939 | 60 | 336 | 2.0 | 6.0 | 0.00 | 0.00 | 0.00 | 75 | 1012.4 |
| 20260904141439 | 60 | 5 | 2.0 | 6.0 | 0.00 | 0.00 | 0.00 | 74 | 1012.4 |
| 20260904140938 | 60 | 329 | 2.0 | 4.0 | 0.00 | 0.00 | 0.00 | 74 | 1012.3 |
| 20260904140439 | 61 | 223 | 2.0 | 5.0 | 0.00 | 0.00 | 0.00 | 74 | 1012.2 |
| 20260904135937 | 61 | 223 | 3.0 | 5.0 | 0.00 | 0.00 | 0.00 | 74 | 1012.1 |
| 20260904135437 | 61 | 224 | 3.0 | 5.0 | 0.00 | 0.00 | 0.00 | 74 | 1012.0 |
| 20260904134937 | 61 | 209 | 3.0 | 5.0 | 0.00 | 0.00 | 0.00 | 74 | 1012.0 |
| 20260904134437 | 61 | 221 | 3.0 | 6.0 | 0.00 | 0.00 | 0.00 | 74 | 1012.1 |
| 20260904133937 | 61 | 225 | 4.0 | 9.0 | 0.00 | 0.00 | 0.00 | 73 | 1012.0 |
| 20260904133437 | 61 | 215 | 3.0 | 9.0 | 0.00 | 0.00 | 0.00 | 73 | 1012.1 |
| 20260904132936 | 61 | 240 | 2.0 | 6.0 | 0.00 | 0.00 | 0.00 | 72 | 1012.0 |
| 20260904132437 | 61 | 242 | 2.0 | 4.0 | 0.00 | 0.00 | 0.00 | 72 | 1012.0 |
| 20260904131937 | 61 | 248 | 1.0 | 4.0 | 0.00 | 0.00 | 0.00 | 72 | 1011.9 |
| 20260904131438 | 61 | 244 | 1.0 | 4.0 | 0.00 | 0.00 | 0.00 | 71 | 1011.9 |
| 20260904130937 | 61 | 244 | 1.0 | 4.0 | 0.00 | 0.00 | 0.00 | 71 | 1011.8 |
| 20260904130437 | 62 | 244 | 2.0 | 5.0 | 0.00 | 0.00 | 0.00 | 71 | 1011.7 |
| 20260904125936 | 62 | 244 | 2.0 | 5.0 | 0.00 | 0.00 | 0.00 | 71 | 1011.7 |
| 20260904125433 | 62 | 245 | 2.0 | 6.0 | 0.00 | 0.00 | 0.00 | 71 | 1011.6 |
| 20260904124930 | 62 | 244 | 2.0 | 6.0 | 0.00 | 0.00 | 0.00 | 70 | 1011.6 |
| 20260904124429 | 62 | 270 | 2.0 | 4.0 | 0.00 | 0.00 | 0.00 | 70 | 1011.6 |
| 20260904123929 | 62 | 271 | 2.0 | 4.0 | 0.00 | 0.00 | 0.00 | 70 | 1011.5 |
| 20260904123650 | 62 | 273 | 3.0 | 5.0 | 0.00 | 0.00 | 0.00 | 69 | 1011.6 |
| 20260904122926 | 62 | 256 | 3.0 | 5.0 | 0.00 | 0.00 | 0.00 | 69 | 1011.5 |
| 20260904122427 | 63 | 228 | 2.0 | 4.0 | 0.00 | 0.00 | 0.00 | 69 | 1011.5 |
| 20260904122143 | 63 | 235 | 2.0 | 4.0 | 0.00 | 0.00 | 0.00 | 69 | 1011.5 |
| 20260904121459 | 63 | 242 | 1.0 | 3.0 | 0.00 | 0.00 | 0.00 | 69 | 1011.6 |
| 20260904121423 | 63 | 236 | 1.0 | 3.0 | 0.00 | 0.00 | 0.00 | 69 | 1011.6 |
| 20260904121124 | 63 | 242 | 2.0 | 3.0 | 0.00 | 0.00 | 0.00 | 69 | 1011.6 |
| 20260904115923 | 64 | 244 | 2.0 | 3.0 | 0.00 | 0.00 | 0.00 | 69 | 1011.6 |
| 20260904115421 | 64 | 244 | 2.0 | 4.0 | 0.00 | 0.00 | 0.00 | 68 | 1011.6 |
| 20260904114919 | 64 | 246 | 1.0 | 4.0 | 0.00 | 0.00 | 0.00 | 68 | 1011.6 |
| 20260904114418 | 64 | 245 | 1.0 | 3.0 | 0.00 | 0.00 | 0.00 | 68 | 1011.6 |
| 20260904113915 | 64 | 245 | 1.0 | 4.0 | 0.00 | 0.00 | 0.00 | 68 | 1011.6 |
| 20260904113415 | 64 | 246 | 1.0 | 4.0 | 0.00 | 0.00 | 0.00 | 69 | 1011.5 |
| 20260904112912 | 64 | 244 | 1.0 | 3.0 | 0.00 | 0.00 | 0.00 | 69 | 1011.5 |
| 20260904112411 | 64 | 244 | 1.0 | 4.0 | 0.00 | 0.00 | 0.00 | 68 | 1011.6 |
| 20260904111909 | 64 | 244 | 3.0 | 5.0 | 0.00 | 0.00 | 0.00 | 68 | 1011.5 |